Location: Bloomdale
(33.2473°N, 96.6794°W)
Time: 04:55:23
(UTC+00:00)

Daily predictions for brighter satellites

Satellite Brightness Start Highest point End
(mag) Time Altitude Azimuth Time Altitude Azimuth Time Altitude Azimuth
Cosmos 2056 Rocket 3.6 01:57:42 10° S 02:02:43 56° ESE 02:07:50 10° NNE
Cosmos 2297 Rocket 3.5 01:59:58 10° NW 02:05:13 40° WSW 02:10:27 10° S
KM-V1 4.3 02:04:17 10° SW 02:06:26 30° SSE 02:09:38 10° E
Lacrosse 5 4.1 02:05:46 10° N 02:08:07 13° NNE 02:10:29 10° ENE
Cosmos 2227 Rocket 3.0 02:03:28 10° NNW 02:08:56 52° WSW 02:14:23 10° S
Cosmos 1782 Rocket 4.4 02:08:02 10° NNW 02:12:14 51° W 02:16:26 10° S
Cosmos 407 Rocket 4.0 02:08:55 10° N 02:13:59 45° ENE 02:18:58 10° SE
SAR-Lupe-4 4.0 02:10:47 10° N 02:14:21 67° WNW 02:17:52 10° SSW
Cosmos 1842 3.6 02:12:33 10° SSE 02:16:16 44° E 02:20:02 10° NNE
BREEZE M DEB (TANK) 2.4 02:14:58 10° WNW 02:17:26 32° SW 02:19:15 10° SSE
CZ-4 R/B 4.1 02:16:03 10° SW 02:18:15 15° W 02:20:29 10° WNW
Cosmos 1674 Rocket 3.9 02:14:40 10° SSE 02:18:52 44° E 02:23:03 10° NNE
Cosmos 1300 Rocket 3.5 02:14:57 10° N 02:19:15 71° E 02:23:33 10° SSE
Cosmos 1371 Rocket 4.1 02:14:22 10° SSW 02:19:31 86° WNW 02:24:43 10° NNE
ERS-2 2.1 02:16:31 10° NNE 02:20:10 89° W 02:23:48 10° SSW
MOS 1-B Rocket 4.5 02:15:26 10° N 02:20:57 63° WNW 02:26:51 10° SSW
Cosmos 1420 Rocket 4.1 02:16:06 10° S 02:21:04 51° ESE 02:26:06 10° NNE
Helios 1A Rocket 3.0 02:17:49 10° S 02:21:54 78° WSW 02:25:57 10° NNW
Genesis I 3.0 02:22:08 10° SSW 02:25:54 79° ESE 02:29:47 10° NNE
Cosmos 1766 3.2 02:24:57 10° N 02:28:48 68° E 02:32:38 10° SSE
Cosmos 1821 Rocket 4.3 02:25:05 10° N 02:31:14 72° W 02:37:17 10° S
USA 186 3.0 02:30:33 10° SSW 02:32:58 33° W 02:35:35 10° NNW
Sich 1 Rocket 3.9 02:29:18 10° NNW 02:33:39 68° W 02:38:00 10° S
NOSS 3-2 (C) 3.4 02:29:06 10° SW 02:34:29 78° WNW 02:40:33 10° NNE
SJ-6B 3.2 02:31:30 10° S 02:35:36 70° W 02:39:39 10° NNW
Cosmos 1470 3.9 02:36:27 10° NNE 02:39:53 27° ENE 02:41:53 18° ESE
ATLAS 3B R/B 3.9 02:39:16 15° ESE 02:40:53 16° ESE 02:44:38 10° ENE
IRS-1A Rocket 4.4 02:35:03 10° SSE 02:40:54 73° ENE 02:46:43 10° N
Cosmos 1023 Rocket 4.5 02:36:57 10° NNW 02:42:15 79° ENE 02:46:53 13° SSE
SL-16 R/B 2.1 02:42:29 10° SSW 02:48:07 75° ESE 02:53:47 10° NNE
ASTRO E2 3.8 02:45:06 10° SSW 02:48:17 23° SSE 02:49:07 22° SE
CZ-2C R/B 4.4 02:44:28 10° NNE 02:48:54 37° E 02:52:13 16° SSE
Cosmos 2360 Rocket 3.0 02:45:17 13° SSE 02:49:32 30° ESE 02:54:22 10° NE
OBJECT-B 2.6 02:47:39 10° SSW 02:50:30 29° W 02:53:21 10° NW
Cosmos 1241 Rocket 4.5 02:44:11 10° NNW 02:50:36 89° WSW 02:55:37 17° SSE
Cosmos 2322 Rocket 2.2 02:45:15 10° S 02:50:48 59° ESE 02:56:24 10° NNE
SL-24 DEB 4.4 02:46:23 10° S 02:51:05 80° W 02:55:51 10° N
Cosmos 1315 Rocket 3.8 02:48:02 10° NNE 02:51:45 32° ENE 02:53:31 23° ESE
Aureole 2 Rocket 3.6 02:51:41 10° NW 02:53:40 23° WSW 02:55:18 12° SSW
Delta 128 4.0 02:49:34 10° WSW 02:53:49 44° S 02:56:22 22° ESE
Ariane Rocket 3.0 02:50:47 12° SSE 02:55:32 86° WSW 03:00:40 10° NNW
Cosmos 676 Rocket 4.4 02:53:56 10° N 02:59:08 51° ENE 03:02:11 23° SE
Resurs 1-3 3.8 02:55:17 13° S 02:59:10 73° WSW 03:03:33 10° NNW
Cosmos 1954 Rocket 4.3 02:54:43 10° N 02:59:56 53° ENE 03:03:00 24° SE
Meteor 1-21 4.2 02:54:21 10° S 03:00:03 83° E 03:05:42 10° N
Cosmos 2227 4.4 02:56:21 10° NNW 03:01:53 58° ENE 03:05:12 24° SE
Okean 1 Rocket 3.2 02:57:40 10° N 03:01:58 55° E 03:04:14 26° SSE
Cosmos 1726 2.3 02:59:22 10° N 03:02:55 51° E 03:04:15 32° SE
Cosmos 1378 Rocket 4.1 03:00:41 10° SSW 03:04:55 57° W 03:09:13 10° N
Okean 2 3.8 03:02:37 10° SSW 03:06:41 63° W 03:10:43 10° N
Cosmos 1934 Rocket 4.3 03:04:03 10° NNW 03:10:05 64° W 03:16:11 10° S
BREEZE-M DEB (TANK) 4.5 02:53:14 10° NW 03:10:16 87° SW 03:13:12 27° SE
Cosmos 1758 3.8 03:06:35 10° N 03:10:21 40° E 03:11:21 33° ESE
Cosmos 2237 4.2 03:04:49 10° S 03:10:24 61° ESE 03:16:01 10° NNE
Lacrosse 5 rocket 1.1 03:09:05 10° SSW 03:12:46 51° SE 03:16:19 10° NE
USA 215 3.8 03:07:26 10° ENE 03:13:10 32° SE 03:18:53 10° S
USA 81 4.3 03:08:18 10° N 03:13:24 49° E 03:15:44 29° SE
Cosmos 1140 Rocket 4.2 03:09:46 10° NNW 03:14:49 50° WSW 03:18:53 15° S
Cosmos 1707 2.9 03:13:40 17° SSW 03:16:34 73° W 03:20:27 10° N
Cosmos 1110 Rocket 4.4 03:15:27 29° SE 03:17:20 40° ESE 03:22:10 10° NNE
CENTAUR R/B 4.4 03:15:51 10° WSW 03:20:52 30° NW 03:26:39 10° NNE
BREEZE-M DEB (TANK) 3.6 03:25:43 10° W 03:28:04 28° SSW 03:28:57 26° S
Cosmos 1727 Rocket 4.0 03:24:15 14° S 03:29:47 88° W 03:36:06 10° N
SPOT 5 4.0 03:30:03 27° E 03:31:13 30° ENE 03:35:34 10° NNE
Meteor 2-20 Rocket 4.4 03:27:22 17° S 03:32:13 90° E 03:38:21 10° N
Cosmos 1844 Rocket 4.1 03:28:04 10° N 03:32:36 24° ENE 03:34:17 21° E
Resurs 01 Rocket 2.3 03:33:54 25° SSW 03:36:11 48° W 03:40:27 10° NNW
Cosmos 1025 Rocket 3.6 03:37:24 39° E 03:37:24 39° E 03:41:24 10° NNE
Cosmos 1953 3.2 03:34:19 10° NNE 03:37:53 35° ENE 03:37:53 35° ENE
Cosmos 1452 Rocket 4.2 03:34:16 10° SSW 03:39:24 53° WNW 03:44:34 10° N
CARTOSAT-1 3.8 03:39:24 46° E 03:39:52 48° ENE 03:44:01 10° N
IGS 5A 4.4 03:38:23 26° SSW 03:40:14 43° W 03:44:13 10° NNW
USA 245 3.7 03:40:33 51° SSE 03:41:40 79° ENE 03:46:57 10° N
Terra 3.1 03:41:40 25° ENE 03:42:03 25° ENE 03:45:53 10° NNE
Cosmos 1626 3.1 03:45:05 34° NE 03:45:05 34° NE 03:47:38 10° NNE
Cosmos 2263 Rocket 2.9 03:40:20 10° NNW 03:45:45 47° WSW 03:48:33 26° SSW
Cosmos 2333 4.3 03:45:22 44° SSE 03:46:40 53° ESE 03:52:14 10° NNE
Cosmos 1975 Rocket 3.2 03:46:46 40° SSW 03:48:12 71° W 03:52:34 10° N
SPOT 1/Viking Rocket 3.5 03:47:31 42° S 03:49:18 77° WSW 03:54:27 10° NNW
Lacrosse 5 1.9 03:46:49 10° NW 03:51:54 71° NE 03:52:53 55° ESE
Cosmos 1802 Rocket 4.4 03:47:57 10° N 03:53:59 47° E 03:55:19 41° ESE
Cosmos 1850 Rocket 4.0 03:51:03 10° N 03:56:18 64° ENE 03:57:07 56° ESE
Cosmos 1461 4.5 03:53:02 10° N 03:56:19 23° NE 03:56:19 23° NE
Geosat 4.2 03:55:46 48° E 03:56:37 54° ENE 04:01:31 10° NNW
KORONAS-FOTON 4.2 03:56:35 52° WSW 03:57:02 56° W 04:00:46 10° N
Cosmos 2333 Rocket 2.3 03:56:42 51° SE 03:57:15 53° ESE 04:02:50 10° NNE
BREEZE-M DEB (TANK) 4.5 03:32:40 10° SW 03:58:13 69° SE 04:03:32 10° ENE
Spot 2 Rocket 3.4 03:58:37 58° SSE 03:59:38 90° WNW 04:04:43 10° NNW
Cosmos 1331 Rocket 4.1 04:02:33 35° SSW 04:04:44 74° WNW 04:10:00 10° NNE
ERS-1 Rocket 2.9 04:04:37 63° ESE 04:05:05 67° ENE 04:10:06 10° N
IUS-18 SRM-1 3.6 03:59:31 10° WSW 04:07:55 41° SSW 04:07:55 41° SSW
ATLAS CENTAUR R/B 3.8 04:08:07 10° NNE 04:10:32 14° NE 04:10:56 14° ENE
Cosmos 2219 Rocket 2.2 04:11:14 59° ESE 04:11:17 59° ESE 04:16:52 10° NNE
Cosmos 1459 Rocket 3.8 04:05:17 10° N 04:11:22 84° E 04:12:40 58° SSE
ARIANE 5 R/B 2.7 04:13:46 68° WSW 04:13:51 68° W 04:18:18 10° NNW
Cosmos 1674 4.3 04:16:07 28° W 04:16:37 29° W 04:19:53 10° NNW
Cosmos 1844 4.1 04:12:04 10° N 04:17:27 46° ENE 04:17:50 46° ENE
Meteor 1-24 Rocket 4.3 04:19:34 40° ENE 04:19:34 40° ENE 04:23:51 10° NNE
Cosmos 1302 Rocket 3.9 04:23:10 78° E 04:23:10 78° E 04:28:19 10° NNE
Cosmos 2237 Rocket 4.2 04:29:30 15° ENE 04:29:30 15° ENE 04:30:53 10° NE
Cosmos 1741 Rocket 4.1 04:23:22 10° NNW 04:28:34 64° WSW 04:28:51 63° WSW
Meteor 2-11 Rocket 4.4 04:22:40 10° N 04:28:47 80° W 04:29:46 63° SSW
Cosmos 2061 Rocket 3.9 04:22:24 10° N 04:28:50 72° E 04:29:34 65° SE
Aureole 1 Rocket 4.2 04:22:27 10° NNW 04:28:50 83° ENE 04:30:26 59° SSE
ATLAS 3B R/B 2.7 04:26:19 22° SW 04:30:46 71° WNW 04:37:26 10° NNE
Cosmos 2360 Rocket 3.9 04:28:28 10° WSW 04:33:23 31° WNW 04:38:20 10° N
Cosmos 1864 Rocket 4.3 04:27:44 10° N 04:33:55 74° E 04:34:21 71° ESE
Cosmos 2123 Rocket 4.0 04:32:40 55° SSW 04:34:05 76° W 04:40:25 10° N
H-2A R/B 4.3 04:32:05 10° N 04:35:12 48° NNW 04:35:12 48° NNW
Cosmos 1544 Rocket 4.1 04:33:19 10° NNW 04:37:03 56° NW 04:37:03 56° NW
Cosmos 1455 Rocket 4.5 04:38:38 10° NNW 04:42:32 31° W 04:42:32 31° W
Cosmos 1340 4.5 04:45:20 30° NW 04:45:20 30° NW 04:47:42 10° N
COSMOS 2428 2.7 04:48:51 79° W 04:48:59 79° WNW 04:54:45 10° NNE
Cosmos 2233 Rocket 4.0 04:45:27 10° N 04:51:23 62° ENE 04:51:23 62° ENE
Cosmos 2322 4.4 04:50:06 38° WSW 04:51:42 48° WNW 04:57:11 10° N
Lacrosse 5 rocket 4.2 04:50:08 10° WNW 04:52:02 14° NW 04:53:55 10° N
NOSS 0 Rocket 4.4 04:57:14 49° ENE 04:57:14 49° ENE 05:02:07 10° NNE
USA 215 3.7 04:49:54 10° NE 04:56:16 58° NW 05:02:38 10° WSW
Cosmos 2278 Rocket 3.8 05:01:14 10° N 05:05:40 23° ENE 05:05:45 23° ENE
ATLAS 2A CENTAUR R/B 4.5 05:01:05 10° WSW 05:04:20 18° SW 05:04:20 18° SW
Cosmos 968 Rocket 4.3 05:09:42 10° N 05:13:30 46° NNE 05:13:30 46° NNE
Cosmos 1844 Rocket 3.6 05:11:19 10° NW 05:15:57 38° W 05:15:57 38° W
Terra 3.6 05:20:33 25° WNW 05:20:33 25° WNW 05:23:40 10° NW
GEOS 3 Rocket 4.5 05:20:24 44° NE 05:20:24 44° NE 05:25:10 10° NNW
Lacrosse 5 4.5 05:31:54 10° W 05:32:05 10° W 05:32:05 10° W
Cosmos 1980 4.2 05:37:59 54° N 05:37:59 54° N 05:42:21 10° NNE
Cosmos 2333 Rocket 4.4 05:38:37 13° W 05:41:48 19° WNW 05:45:49 10° NNW
ATLAS CENTAUR R/B 3.7 05:45:16 10° NW 05:47:04 23° NW 05:47:04 23° NW
SL-16 R/B 3.5 06:07:45 33° NE 06:07:45 33° NE 06:11:04 10° NNE
Cosmos 2034 Rocket 4.4 06:03:16 10° N 06:08:22 56° NE 06:08:22 56° NE
Cosmos 2237 Rocket 3.2 06:11:17 41° NW 06:11:17 41° NW 06:15:54 10° N
BREEZE-M DEB (TANK) 4.4 06:20:56 49° E 06:20:56 49° E 06:33:02 10° NE
BREEZE M DEB (TANK) 4.2 06:22:37 53° E 06:22:37 53° E 06:37:28 10° ENE
SJ 16-02 3.9 06:23:07 10° NNE 06:24:49 16° NE 06:24:49 16° NE
Tsikada Rocket 4.3 06:28:01 62° NNE 06:28:01 62° NNE 06:33:06 10° N
Cosmos 2278 Rocket 3.7 06:44:34 10° NW 06:47:35 28° WNW 06:47:35 28° WNW
ATLAS CENTAUR R/B 4.4 06:56:56 25° WNW 06:59:26 34° NNW 07:09:54 10° NE
USA 267 3.3 07:09:00 68° WNW 07:09:00 68° WNW 07:14:39 10° NW
Cosmos 1943 4.0 07:23:13 44° ENE 07:23:13 44° ENE 07:27:29 10° NNE
Cosmos 1603 4.3 07:28:43 52° ENE 07:28:43 52° ENE 07:33:16 10° NNE
Cosmos 1634 Rocket 4.4 07:25:10 10° NNW 07:30:28 54° WNW 07:30:28 54° WNW
Cosmos 1943 Rocket 2.6 07:27:16 10° NNW 07:31:43 57° N 07:31:43 57° N
Cosmos 2279 Rocket 4.0 07:26:32 10° N 07:32:19 77° NNE 07:32:19 77° NNE
Resurs 1-4 Rocket 2.7 07:37:54 10° NNE 07:42:25 52° ENE 07:42:25 52° ENE
SL-16 R/B 4.0 07:49:37 19° WNW 07:49:58 19° WNW 07:53:57 10° NNW
X-37B 4.1 07:53:27 12° N 07:53:27 12° N 07:54:00 10° NNE
CZ-2D R/B 2.4 07:47:22 10° NNE 07:51:52 61° ENE 07:51:52 61° ENE
Cosmos 2221 3.9 07:52:42 10° N 07:55:44 37° NE 07:55:44 37° NE
USA 229 DEB 4.3 07:56:00 39° WNW 07:56:51 41° NW 08:03:06 10° NNE
USA 229 4.3 07:56:07 39° WNW 07:56:56 41° NW 08:03:13 10° NNE
ADEOS II 3.1 07:55:29 10° NNE 08:00:16 35° E 08:00:27 35° ESE
Cosmos 2098 Rocket 3.7 08:00:52 83° NE 08:00:52 83° NE 08:05:56 10° N
Nadezhda 4 Rocket 3.8 08:01:44 82° W 08:01:45 82° W 08:07:54 10° N
ARGOS Delta rocket 4.2 07:57:29 10° N 08:02:36 77° N 08:02:36 77° N
SJ 16-02 3.8 08:00:59 10° NW 08:01:47 14° NW 08:01:47 14° NW
SeaSat 1 4.0 08:06:10 10° NE 08:10:07 24° ESE 08:10:13 24° ESE
Cosmos 1606 4.4 08:08:21 10° NNE 08:10:56 31° NE 08:10:56 31° NE
Cosmos 2369 Rocket 2.1 08:07:07 10° NNW 08:12:51 82° ENE 08:13:05 80° ESE
SL-16 R/B 2.6 08:11:30 55° SE 08:12:52 73° ENE 08:19:03 10° N
Cosmos 1242 Rocket 4.5 08:12:42 10° N 08:14:48 29° NNE 08:14:48 29° NNE
Cosmos 1656 Rocket 4.2 08:13:17 10° NNW 08:18:53 56° ENE 08:20:52 37° SE
IDEFIX/ARIANE 42P 4.1 08:15:10 10° NE 08:19:34 27° E 08:20:56 24° ESE
Cosmos 2263 4.4 08:14:33 10° NNW 08:20:12 67° ENE 08:21:30 51° SE
ATLAS 5 CENTAUR R/B 2.1 08:29:31 48° NE 08:29:31 48° NE 08:32:36 10° NNE
DELTA 2 R/B (1) 4.0 08:29:13 44° WNW 08:30:38 57° NNW 08:36:07 10° ENE
Meteor 2-15 4.4 08:25:42 10° N 08:31:51 78° E 08:33:32 50° SSE
USA 307 3.4 08:34:52 57° N 08:34:52 57° N 08:38:28 10° NE
Cosmos 1627 Rocket 4.4 08:33:19 59° S 08:34:40 87° E 08:41:02 10° N
Cosmos 1633 4.1 08:37:09 31° N 08:37:09 31° N 08:39:07 10° N
Cosmos 1092 Rocket 3.9 08:38:56 60° SW 08:39:51 69° W 08:45:58 10° N
ADEOS Rocket 3.7 08:35:05 21° SSE 08:40:25 69° ENE 08:47:20 10° N
Landsat 4 4.3 08:37:59 10° NNE 08:40:58 54° NNE 08:40:58 54° NNE
Aureole 3 Rocket 3.2 08:38:20 10° N 08:42:29 89° E 08:42:55 75° S
Helios 1B rocket 3.6 08:39:32 10° N 08:42:26 33° NW 08:42:26 33° NW
Meteor 2-3 Rocket 4.0 08:44:04 43° SSE 08:45:44 63° E 08:51:15 10° NNE
USA 308 3.5 08:50:00 47° NW 08:50:00 47° NW 08:54:07 10° NNE
IRS-1D 3.4 08:46:48 10° NNE 08:51:57 89° E 08:52:49 62° SSW
ATLAS 5 CENTAUR R/B 4.3 08:44:46 32° SW 08:52:21 52° S 09:57:59 10° ESE
CBERS-1 4.0 08:50:38 10° NNE 08:55:46 76° ESE 08:57:06 50° S
Cosmos 921 Rocket 4.4 09:01:07 25° WNW 09:01:07 25° WNW 09:04:13 10° NNW
NOSS 2-2 (D) 4.5 09:05:20 27° NW 09:05:20 27° NW 09:07:59 10° N
MSX 4.2 09:01:36 10° NNE 09:07:18 60° ESE 09:10:21 28° S
Lacrosse 4 Rocket 3.2 09:04:28 10° N 09:08:05 30° ENE 09:11:40 10° ESE
USA 305 4.2 09:08:39 27° WNW 09:09:33 29° NW 09:13:18 10° NNE
Centaur D-1AR AC-39 4.2 09:10:01 28° SSW 09:12:10 31° S 09:38:58 10° ESE
Centaur D-1AR AC-39 4.2 09:10:00 28° SSW 09:12:10 31° S 09:38:58 10° ESE
Cosmos 1937 Rocket 4.1 09:08:23 10° NW 09:13:06 36° W 09:13:06 36° W
Chandra Rocket (1) 4.2 09:13:17 29° SSW 09:15:29 33° S 09:19:54 10° ESE
Cosmos 1933 3.2 09:15:23 10° N 09:19:28 82° W 09:20:30 49° S
Cosmos 2151 4.0 09:21:58 30° WNW 09:21:58 30° WNW 09:25:39 10° NNW
Resurs 1-4 Rocket 4.0 09:19:27 10° NNW 09:22:25 15° WNW 09:23:30 14° WNW
ERBS 2.0 09:29:30 75° SSW 09:29:44 86° SE 09:32:58 10° NE
IRIDIUM 104 4.3 09:24:57 10° N 09:30:08 70° W 09:32:55 28° SSW
X-37B 3.9 09:29:25 10° N 09:30:08 11° N 09:30:51 10° NNE
Cosmos 2150 Rocket 4.4 09:25:35 10° N 09:30:45 62° ENE 09:35:58 10° SSE
Centaur AC-125 3.6 09:32:23 18° SE 09:32:23 18° SE 09:33:45 10° ESE
CZ-2D R/B 4.1 09:30:00 10° NW 09:31:57 12° WNW 09:33:11 11° WNW
Delta 2 Rocket 3.5 09:38:17 39° SSW 09:39:12 48° SSE 09:42:42 10° E
IRIDIUM 114 4.4 09:34:10 10° NNW 09:39:15 56° W 09:42:03 26° SSW
ADEOS II 3.4 09:35:37 10° NNW 09:39:42 24° WNW 09:41:23 20° W
CZ-2D R/B 3.9 09:35:43 10° NNE 09:39:50 59° E 09:42:32 20° S
CZ-2C R/B 3.5 09:38:09 10° NNE 09:42:47 40° E 09:47:15 10° SSE
Cosmos 1553 Rocket 4.0 09:36:41 10° NNW 09:42:53 64° W 09:47:56 15° S
Cosmos 1125 Rocket 3.8 09:41:30 10° NNW 09:46:46 72° ENE 09:52:01 10° SSE
S3M 4.0 09:41:11 10° N 09:47:23 90° ESE 09:53:37 10° S
SeaSat 1 3.3 09:43:09 10° N 09:47:36 35° WNW 09:50:00 22° WSW
Cosmos 1862 3.3 09:45:51 21° S 09:48:25 82° E 09:52:28 10° N
SL-08 R/B 3.7 09:44:41 10° SSE 09:49:15 65° ENE 09:53:54 10° N
ARIANE 5 R/B 2.4 09:45:51 10° N 09:50:49 71° WNW 09:54:12 21° SSW
Cosmos 1328 Rocket 3.5 09:48:44 10° N 09:53:07 88° E 09:57:30 10° S
Meteor 1-28 Rocket 4.5 09:53:31 23° W 09:53:33 23° W 09:56:37 10° NW
SL-16 R/B 4.2 09:56:35 13° W 09:56:54 13° W 09:59:47 10° WNW
Cosmos 2084 Rocket 4.1 09:54:22 18° S 09:57:00 44° ESE 10:00:46 10° NE
IDEFIX/ARIANE 42P 3.6 09:54:34 10° N 09:59:03 30° WNW 10:01:44 19° WSW
GPS 2-04 Rocket1 3.0 09:57:38 15° W 10:00:46 59° N 10:04:28 10° ENE
deb Kosmos-1763 4.0 09:58:36 20° S 10:00:55 74° ESE 10:04:26 10° NNE
CZ-4B R/B 3.8 10:00:00 10° N 10:05:07 53° WNW 10:09:03 16° SW
USA 281 3.3 09:59:07 10° S 10:05:30 55° WSW 10:11:57 10° NNW
CZ-4C R/B 1.9 10:04:44 20° SW 10:07:57 71° WNW 10:13:18 10° NNE
BREEZE-M DEB (TANK) 4.3 10:08:05 11° S 10:09:29 16° SE 10:10:58 10° E
ASC 2 Rocket 4.2 10:14:29 17° SW 10:16:48 24° S 10:20:09 10° SE
Cosmos 1408 Rocket 4.1 10:16:18 15° SSW 10:19:41 41° W 10:23:55 10° N
Cosmos 1833 Rocket 2.8 10:15:12 10° SSW 10:20:49 81° ESE 10:26:29 10° NNE
Cosmos 1515 Rocket 3.5 10:16:30 10° N 10:20:57 82° W 10:25:22 10° S
BREEZE-M DEB (TANK) 3.0 10:17:42 14° WSW 10:21:38 59° NW 10:24:27 10° NE
OAO 3 Rocket 4.2 10:18:14 14° SSW 10:21:48 34° SSE 10:26:08 10° E
ATLAS 2A CENTAUR R/B 3.8 10:19:08 16° WSW 10:21:58 45° S 10:33:38 10° ESE
Tianhe-1 1.2 10:20:38 17° SW 10:22:50 63° SSE 10:25:58 10° ENE
Spot 4 Rocket 4.2 10:18:28 10° N 10:23:30 58° WNW 10:28:30 10° SSW
Cosmos 1151 Rocket 4.1 10:21:31 10° NNW 10:25:04 26° W 10:28:25 11° SW
Cosmos 883 Rocket 4.5 10:22:49 10° NNW 10:28:53 65° W 10:34:54 10° S
PAYLOAD A 4.3 10:30:10 10° N 10:35:02 50° WNW 10:40:04 10° SSW
Cosmos 2082 Rocket 3.0 10:32:22 10° S 10:37:46 52° ESE 10:43:12 10° NNE
FENGYUN 3A 3.7 10:34:05 10° N 10:39:31 80° WNW 10:44:56 10° SSW
Cosmos 44 3.5 10:34:53 10° SSW 10:40:01 84° WNW 10:45:27 10° NNE
ATLAS 3B CENTAUR R/B 4.3 10:21:17 10° W 10:40:16 67° SSW 10:49:44 10° ESE
CZ-2C R/B 3.2 10:38:57 10° N 10:42:37 43° WNW 10:46:11 10° SW
ALOS 2.3 10:40:50 10° N 10:45:29 72° WNW 10:50:07 10° SSW
Lacrosse 4 Rocket 2.9 10:43:59 10° WNW 10:46:27 16° WSW 10:48:53 10° SW
